SONATE-2
1 59112U 24043Q   26230.38022485  .00047417  00000-0  51490-3 0  9991
2 59112  97.5597  24.8436 0004655 334.5620  25.5408 15.63353139137590
GRBBeta
1 60237U 24128C   26230.33289895  .00003422  00000-0  23905-3 0  9998
2 60237  61.9916 358.1623 0032007 148.3125 211.9903 15.07016164115638
Curium One
1 60242U 24128H   26230.49586583  .00007334  00000-0  41724-3 0  9990
2 60242  61.9802 344.9501 0031085 143.6459 216.6757 15.13305553115885
ROBUSTA-3A
1 60243U 24128J   26230.49667598  .00007437  00000-0  43280-3 0  9990
2 60243  61.9883 347.7707 0033011 140.5872 219.7635 15.12423018115841
CatSat
1 60246U 24125J   26230.57424787  .00085328  00000-0  80257-3 0  9990
2 60246  97.2023  84.2405 0014747 308.7938  51.2005 15.66716810117134
HYPERVIEW-1G (RS66S)
1 61772U 24199AP  26230.11543498  .07890463  24672-5  93922-3 0  9997
2 61772  97.2456 114.2453 0006603 245.8477 114.2131 16.36574258144515
AO-123
1 61781U 24199AY  26230.57162771  .00007398  00000-0  20934-3 0  9995
2 61781  97.2904  98.6857 0015444  85.5160 274.7849 15.36476404143506
LASARsat
1 62391U 24247Q   26230.56024700  .00034754  00000-0  60668-3 0  9999
2 62391  44.9725 270.7077 0008654   8.4088 351.6947 15.50103041 92988
CroCube
1 62394U 24247T   26229.44050543  .00030135  00000-0  48363-3 0  9998
2 62394  44.9696 273.2151 0008904  10.0822 350.0248 15.52522684 92855
JINJUSat 1B
1 63210U 25052A   26229.25102232  .00011994  00000-0  35280-3 0  9999
2 63210  97.3909 126.1404 0002154 175.5152 184.6112 15.35235838 79469
NUSHSAT 1
1 63211U 25052B   26230.16298113  .00020622  00000-0  54934-3 0  9991
2 63211  97.3880 127.8554 0001864 165.4571 194.6728 15.38207573 79666
TEVEL2-4
1 63213U 25052D   26229.95487785  .00015771  00000-0  44333-3 0  9994
2 63213  97.3805 126.5117 0000966 173.1442 186.9816 15.36595395 79595
TEVEL2-5
1 63214U 25052E   26230.50401880  .00018710  00000-0  52846-3 0  9994
2 63214  97.3802 126.9916 0000903 169.9151 190.2111 15.36409304 79674
TEVEL2-6
1 63215U 25052F   26230.51777867  .00019023  00000-0  53783-3 0  9996
2 63215  97.3807 126.9904 0000853 166.5856 193.5411 15.36374704 79670
TEVEL2-1
1 63217U 25052H   26230.50482054  .00018132  00000-0  52281-3 0  9990
2 63217  97.3776 126.5236 0000336 223.6752 136.4466 15.35768195 79651
TEVEL2-3
1 63218U 25052J   26229.25897026  .00012379  00000-0  35759-3 0  9998
2 63218  97.3781 125.3065 0000035 167.6396 192.4848 15.35797014 79469
TEVEL2-2
1 63219U 25052K   26229.98342803  .00015350  00000-0  44323-3 0  9996
2 63219  97.3777 126.0049 0000296 238.3352 121.7863 15.35761464 79576
TEVEL2-9
1 63237U 25052AD  26229.26079875  .00011411  00000-0  35341-3 0  9997
2 63237  97.3840 124.5168 0003709 294.0981  65.9873 15.33609246 79387
TEVEL2-7
1 63238U 25052AE  26230.16275096  .00014826  00000-0  46280-3 0  9999
2 63238  97.3844 125.3057 0003719 289.0788  71.0052 15.33294851 79512
TEVEL2-8
1 63239U 25052AF  26229.25789294  .00011422  00000-0  35767-3 0  9995
2 63239  97.3844 124.3772 0003809 297.9371  62.1486 15.33256702 79371
SPIRONE
1 66657U 25274H   26229.35087215  .00001458  00000-0  14285-3 0  9993
2 66657  97.7467 157.7740 0012328 163.1564 197.0068 14.93754146 39350
K-HERO
1 66660U 25274L   26229.53968825  .00001180  00000-0  11549-3 0  9994
2 66660  97.7474 158.1657 0014090 167.8455 192.3108 14.94152601 39398
SNUGLITE-III DURI
1 66661U 25274M   26230.12903814  .00000905  00000-0  89759-4 0  9992
2 66661  97.7471 158.7681 0014712 167.3289 192.8304 14.94171875 39487
SAKHACUBE-CHOLBON
1 67290U 25313AU  26230.15085734  .00008864  00000-0  34827-3 0  9997
2 67290  97.3892 304.4425 0010487 131.9251 228.2883 15.25872121 35429
RS95S (QMR-KWT-2)
1 67291U 25313AV  26230.13823341  .00013181  00000-0  48822-3 0  9998
2 67291  97.3886 304.7551 0010090 129.8469 230.3659 15.27727212 35442
Ten-Koh2
1 68261U 25241B   26230.43371916  .00007131  00000-0  29885-3 0  9991
2 68261  51.6617  23.2157 0006141 347.5381  12.5444 15.24554765 24408
JACK-002
1 68417U 26067B   26230.44849755  .00005963  00000-0  27951-3 0  9996
2 68417  97.4619 188.3169 0003999  74.7819 285.3858 15.20057103 21406
DISCO 2
1 68431U 26067R   26230.41353023  .00007187  00000-0  33780-3 0  9994
2 68431  97.4652 188.2759 0003885 111.9673 248.1975 15.19890949 21395
HADES-SA (SpinnyONE)
1 68446U 26067AG  26230.42971290  .00018041  00000-0  81609-3 0  9997
2 68446  97.4447 187.8971 0005183 195.7118 164.3958 15.20960370 21388
PARUS-6U1
1 68456U 26067AS  26230.42260604  .00004802  00000-0  23890-3 0  9996
2 68456  97.4605 187.8719 0004831 187.2747 172.8417 15.18081533 21373
SAL-E
1 68458U 26067AU  26230.60116848  .00006157  00000-0  30131-3 0  9999
2 68458  97.4529 187.9555 0004711 196.0670 164.0415 15.18539580 21404
FSI-SAT 2
1 68792U 26088A   26230.36626677  .00004168  00000-0  28013-3 0  9998
2 68792  97.5148  18.1125 0013023 252.9887 106.9914 15.07245204 17655
OrigamiSat 2
1 68795U 26088D   26230.41263361  .00011876  00000-0  73370-3 0  9994
2 68795  97.5151  18.5112 0014099 220.1588 139.8601 15.09940150 17686
ARICA 2
1 68796U 26088E   26230.37554018  .00003793  00000-0  24440-3 0  9995
2 68796  97.5142  18.3919 0014593 221.2328 138.7800 15.08839676 17670
WASEDA-SAT-ZERO-II
1 68797U 26088F   26230.35863873  .00005803  00000-0  36782-3 0  9992
2 68797  97.5139  18.4100 0014440 220.5873 139.4280 15.09229520 17670
MANGARO-II-Piscus
1 68798U 26088G   26230.41426269  .00003425  00000-0  21896-3 0  9992
2 68798  97.5157  18.5053 0017842 224.3643 135.6157 15.09154761 17681
CO-128
1 69912U 26156AV  26230.15639269  .00001142  00000-0  12150-3 0  9991
2 69912  97.7513 129.8700 0003171  32.8366 327.3049 14.90878151  6231
MARINA
1 69920U 26156BD  26230.19082544  .00001775  00000-0  18026-3 0  9992
2 69920  97.7481 129.9633 0008199  26.6961 333.4679 14.92066402  6245
IO-86
1 40931U          26199.45381863  .00000000  00000-0  77536-4 0    07
2 40931   6.0006 322.6653 0012733 338.8432 273.6875 14.79294310    03
LILIUM-4                
1 71922C 26067AC  26089.50133053 -.00014632  00000+0 -74472-3 0    04
2 71922  97.4497  49.1617 0004341   5.9603 355.7042 15.16896692    16
